Henderson, TX

9:41 AM CST on February 14, 2016 (GMT -0600)
Henderson

Weather History for KRFI - January, 2013

Change the Weather History Date:

Thursday, January 31, 2013

  Actual Average (KGGG) Record (KGGG)
Temperature  
Mean Temperature 45 °F 47 °F  
Max Temperature 62 °F 59 °F 84 °F (1971)
Min Temperature 28 °F 36 °F 11 °F (1949)
Degree Days  
Heating Degree Days 20 18  
Month to date heating degree days 580  
Since 1 July heating degree days 1483  
Cooling Degree Days 0 0  
Month to date cooling degree days 4  
Year to date cooling degree days 4  
Moisture  
Dew Point 25 °F    
Average Humidity 54    
Maximum Humidity 93    
Minimum Humidity 18    
Precipitation  
Precipitation 0.00 in 0.11 in 1.80 in (1915)
Month to date precipitation 3.32  
Year to date precipitation 3.32  
Snow  
Snow 0.00 in - - ()
Month to date snowfall  
Since 1 July snowfall  
Snow Depth -    
Sea Level Pressure  
Sea Level Pressure 30.21 in    
Wind  
Wind Speed 2 mph (SW)    
Max Wind Speed 12 mph    
Max Gust Speed 25 mph    
Visibility 10 miles    
Events      
T = Trace of Precipitation, MM = Missing Value Source: NWS Daily Summary

Daily Weather History Graph

Daily Weather History Graph

Search for Another Location

Airport or City:

Trip Planner

Search our weather history database for the weather conditions in past years. The results will help you decide how hot, cold, wet, or windy it might be!

Date:

Astronomy

Jan. 31, 2013 Rise Set
Actual Time 7:13 AM CST 5:52 PM CST
Civil Twilight 6:47 AM CST 6:18 PM CST
Nautical Twilight 6:18 AM CST 6:47 PM CST
Astronomical Twilight 5:49 AM CST 7:16 PM CST
Moon 10:33 PM CST (1/31) 9:33 AM CST (1/31)
Length of Visible Light 11h 30m
Length of Day
10h 38m
Waning Gibbous, 79% of the Moon is Illuminated
Jan 31
Waning Gibbous
Feb 3
Last Quarter
Feb 10
New
Feb 17
First Quarter
Feb 25
Full

Hourly Weather History & Observations

Time (CST) Temp. Windchill Dew Point Humidity Pressure Visibility Wind Dir Wind Speed Gust Speed Precip Events Conditions
12:15 AM 32.0 °F - 28.4 °F 87% 30.15 in 10.0 mi Calm Calm - N/A   Clear
12:35 AM 32.0 °F - 28.4 °F 87% 30.17 in 10.0 mi Calm Calm - N/A   Clear
12:55 AM 32.0 °F - 28.4 °F 87% 30.18 in 10.0 mi Calm Calm - N/A   Clear
1:15 AM 32.0 °F - 28.4 °F 87% 30.18 in 10.0 mi Calm Calm - N/A   Clear
1:35 AM 30.2 °F - 28.4 °F 93% 30.18 in 10.0 mi Calm Calm - N/A   Clear
1:55 AM 32.0 °F - 28.4 °F 87% 30.18 in 10.0 mi Calm Calm - N/A   Clear
2:15 AM 30.2 °F - 28.4 °F 93% 30.18 in 10.0 mi Calm Calm - N/A   Clear
2:35 AM 30.2 °F - 28.4 °F 93% 30.18 in 10.0 mi Calm Calm - N/A   Clear
2:55 AM 30.2 °F - 28.4 °F 93% 30.18 in 10.0 mi Calm Calm - N/A   Clear
3:15 AM 30.2 °F - 28.4 °F 93% 30.18 in 10.0 mi Calm Calm - N/A   Clear
3:35 AM 32.0 °F - 28.4 °F 87% 30.18 in 10.0 mi Calm Calm - N/A   Clear
3:55 AM 32.0 °F - 28.4 °F 87% 30.18 in 10.0 mi Calm Calm - N/A   Clear
4:15 AM 32.0 °F - 28.4 °F 87% 30.18 in 10.0 mi Calm Calm - N/A   Clear
4:35 AM 30.2 °F - 28.4 °F 93% 30.18 in 10.0 mi Calm Calm - N/A   Clear
4:55 AM 30.2 °F - 26.6 °F 86% 30.18 in 10.0 mi Calm Calm - N/A   Clear
5:15 AM 30.2 °F - 26.6 °F 86% 30.18 in 10.0 mi Calm Calm - N/A   Clear
5:35 AM 30.2 °F - 28.4 °F 93% 30.18 in 10.0 mi Calm Calm - N/A   Clear
5:55 AM 30.2 °F - 26.6 °F 86% 30.18 in 10.0 mi Calm Calm - N/A   Clear
6:15 AM 28.4 °F - 26.6 °F 93% 30.18 in 10.0 mi Calm Calm - N/A   Clear
6:35 AM 30.2 °F - 26.6 °F 86% 30.19 in 10.0 mi Calm Calm - N/A   Clear
6:55 AM 30.2 °F - 26.6 °F 86% 30.21 in 10.0 mi Calm Calm - N/A   Clear
7:15 AM 30.2 °F - 26.6 °F 86% 30.21 in 10.0 mi Calm Calm - N/A   Clear
7:55 AM 32.0 °F - 28.4 °F 87% 30.23 in 10.0 mi Calm Calm - N/A   Clear
8:15 AM 33.8 °F - 30.2 °F 87% 30.24 in 10.0 mi Calm Calm - N/A   Clear
8:35 AM 39.2 °F 35.9 °F 28.4 °F 65% 30.25 in 10.0 mi SSW 4.6 mph - N/A   Clear
8:55 AM 42.8 °F - 26.6 °F 53% 30.25 in 10.0 mi Calm Calm - N/A   Clear
9:15 AM 44.6 °F 43.1 °F 26.6 °F 49% 30.25 in 10.0 mi SSW 3.5 mph - N/A   Clear
9:35 AM 44.6 °F 40.2 °F 24.8 °F 46% 30.26 in 10.0 mi SSW 8.1 mph - N/A   Clear
9:55 AM 50.0 °F - 24.8 °F 37% 30.26 in 10.0 mi SW 6.9 mph - N/A   Clear
10:15 AM 51.8 °F - 23.0 °F 33% 30.26 in 10.0 mi SSW 6.9 mph - N/A   Clear
10:35 AM 51.8 °F - 23.0 °F 33% 30.26 in 10.0 mi SW 8.1 mph - N/A   Clear
10:55 AM 53.6 °F - 23.0 °F 30% 30.25 in 10.0 mi SW 8.1 mph 16.1 mph N/A   Clear
11:15 AM 55.4 °F - 19.4 °F 25% 30.25 in 10.0 mi SW 11.5 mph 17.3 mph N/A   Clear
11:35 AM 57.2 °F - 21.2 °F 25% 30.25 in 10.0 mi WSW 8.1 mph 16.1 mph N/A   Clear
11:55 AM 57.2 °F - 21.2 °F 25% 30.24 in 10.0 mi SW 6.9 mph 17.3 mph N/A   Clear
12:15 PM 59.0 °F - 21.2 °F 23% 30.23 in 10.0 mi WSW 10.4 mph - N/A   Clear
12:35 PM 60.8 °F - 19.4 °F 20% 30.22 in 10.0 mi WSW 9.2 mph - N/A   Clear
12:55 PM 60.8 °F - 21.2 °F 22% 30.22 in 10.0 mi WSW 10.4 mph - N/A   Clear
1:15 PM 60.8 °F - 19.4 °F 20% 30.20 in 10.0 mi SSW 9.2 mph - N/A   Clear
1:35 PM 62.6 °F - 21.2 °F 20% 30.20 in 10.0 mi SSW 11.5 mph - N/A   Clear
1:55 PM 62.6 °F - 21.2 °F 20% 30.19 in 10.0 mi WSW 6.9 mph 16.1 mph N/A   Clear
2:15 PM 62.6 °F - 17.6 °F 18% 30.19 in 10.0 mi SW 8.1 mph 25.3 mph N/A   Clear
2:35 PM 62.6 °F - 19.4 °F 19% 30.18 in 10.0 mi SSW 6.9 mph 18.4 mph N/A   Clear
2:55 PM 62.6 °F - 19.4 °F 19% 30.18 in 10.0 mi SW 8.1 mph 16.1 mph N/A   Clear
3:15 PM 62.6 °F - 19.4 °F 19% 30.17 in 10.0 mi SW 6.9 mph 18.4 mph N/A   Clear
3:35 PM 62.6 °F - 19.4 °F 19% 30.18 in 10.0 mi SSW 8.1 mph 16.1 mph N/A   Clear
3:55 PM 62.6 °F - 19.4 °F 19% 30.18 in 10.0 mi SW 5.8 mph - N/A   Clear
4:15 PM 62.6 °F - 21.2 °F 20% 30.17 in 10.0 mi SW 8.1 mph - N/A   Clear
4:35 PM 62.6 °F - 19.4 °F 19% 30.18 in 10.0 mi SSW 6.9 mph - N/A   Clear
4:55 PM 60.8 °F - 21.2 °F 22% 30.18 in 10.0 mi SSW 8.1 mph - N/A   Clear
5:15 PM 60.8 °F - 21.2 °F 22% 30.16 in 10.0 mi SSW 4.6 mph - N/A   Clear
5:35 PM 59.0 °F - 21.2 °F 23% 30.17 in 10.0 mi SW 3.5 mph - N/A   Clear
5:55 PM 57.2 °F - 21.2 °F 25% 30.18 in 10.0 mi SW 3.5 mph - N/A   Clear
6:15 PM 55.4 °F - 23.0 °F 29% 30.18 in 10.0 mi Calm Calm - N/A   Clear
6:35 PM 53.6 °F - 23.0 °F 30% 30.20 in 10.0 mi Calm Calm - N/A   Clear
6:55 PM 53.6 °F - 23.0 °F 30% 30.21 in 10.0 mi Calm Calm - N/A   Clear
7:15 PM 48.2 °F - 28.4 °F 46% 30.21 in 10.0 mi Calm Calm - N/A   Clear
7:35 PM 50.0 °F - 24.8 °F 37% 30.22 in 10.0 mi Calm Calm - N/A   Clear
7:55 PM 50.0 °F - 24.8 °F 37% 30.22 in 10.0 mi Calm Calm - N/A   Clear
8:15 PM 46.4 °F - 28.4 °F 50% 30.23 in 10.0 mi Calm Calm - N/A   Clear
8:35 PM 44.6 °F - 28.4 °F 53% 30.24 in 10.0 mi Calm Calm - N/A   Clear
8:55 PM 42.8 °F - 28.4 °F 57% 30.24 in 10.0 mi Calm Calm - N/A   Clear
9:15 PM 42.8 °F - 32.0 °F 66% 30.25 in 10.0 mi Calm Calm - N/A   Clear
9:35 PM 44.6 °F - 30.2 °F 57% 30.24 in 10.0 mi Calm Calm - N/A   Clear
9:55 PM 42.8 °F - 30.2 °F 61% 30.24 in 10.0 mi Calm Calm - N/A   Clear
10:15 PM 41.0 °F - 30.2 °F 65% 30.25 in 10.0 mi Calm Calm - N/A   Clear
10:35 PM 42.8 °F - 30.2 °F 61% 30.26 in 10.0 mi Calm Calm - N/A   Clear
10:55 PM 41.0 °F - 30.2 °F 65% 30.26 in 10.0 mi Calm Calm - N/A   Clear
11:15 PM 41.0 °F - 30.2 °F 65% 30.27 in 10.0 mi Calm Calm - N/A   Clear
11:35 PM 41.0 °F - 30.2 °F 65% 30.27 in 10.0 mi Calm Calm - N/A   Clear
11:55 PM 41.0 °F - 30.2 °F 65% 30.27 in 10.0 mi Calm Calm - N/A   Clear